EHI
0 0 0 0 0 0 0 0 0 0 0 0 0 0 1 1 1 0 0 0 0 0 0 0 0 0 0 0 0 0 0 0 0 0 0 0 0 0 0 0 0 0 0 0
0 0 0 0 0 0 0 0 0 0 0 0 0 0 0 1 1 0 0 0 0 0 0 0 0 0 0 0 0 0 0 0 0 0 0 0 0 0 0 0 0 0 0 0
0 0 0 0 0 0 0 0 0 0 0 0 0 0 0 0 0 0 0 0 0 0 0 0 0 0 0 0 0 0 0 0 0 0 0 0 0 0 0 0 0 0 0 0
0 0 0 0 0 0 0 0 0 0 0 0 0 0 0 0 0 0 0 0 0 0 0 0 0 0 0 0 0 0 0 0 0 0 0 0 0 0 0 0 0 0 0 0
0 0 0 0 0 0 0 0 0 0 0 0 0 0 0 0 0 0 0 0 0 0 0 0 0 0 0 0 0 0 0 0 0 0 0 0 0 0 0 0 0 0 0 0
0 0 0 0 0 0 0 0 0 0 0 0 0 0 0 0 0 0 1 1 1 0 0 0 0 0 0 0 0 0 0 0 0 0 0 0 0 0 0 0 0 0 0 0
0 0 0 0 0 0 0 0 0 0 0 0 0 0 0 0 0 0 1 2 1 0 0 0 0 0 0 0 0 0 0 0 0 0 0 0 0 0 0 0 0 0 0 0
0 0 0 0 0 0 0 0 0 0 0 0 0 0 0 0 0 0 1 1 1 0 0 0 0 0 0 0 0 0 0 0 0 0 0 0 0 0 0 0 0 0 0 0
0 0 0 0 0 0 0 0 0 0 0 0 0 0 0 0 0 0 0 1 1 0 0 0 0 0 0 0 0 0 0 0 0 0 0 0 0 0 0 0 0 0 0 0
0 0 0 0 0 0 0 0 0 0 0 0 0 0 0 0 0 0 0 0 1 0 0 0 0 0 0 0 0 0 0 0 0 0 0 0 0 0 0 0 0 0 0 0
0 0 0 0 0 0 0 0 0 0 0 0 0 0 0 0 0 0 0 0 0 0 0 0 0 0 0 0 0 0 0 0 0 0 0 0 0 0 0 0 0 0 0 0
0 0 0 0 0 0 0 0 0 0 0 0 0 0 0 0 0 0 0 0 0 0 0 0 0 0 0 0 0 0 0 0 0 0 0 0 0 0 0 0 0 0 0 0
0 0 0 0 0 0 0 0 0 0 0 0 0 0 0 0 0 0 0 0 0 0 0 1 1 0 0 0 0 0 0 0 0 0 0 0 0 0 0 0 0 0 0 0
0 0 0 0 0 0 0 0 0 0 0 0 0 0 0 0 0 0 0 0 0 0 1 2 2 1 0 0 0 0 0 0 0 0 0 0 0 0 0 0 0 0 0 0
0 0 0 0 0 0 0 0 0 0 0 0 0 0 0 0 0 0 0 0 0 1 2 3 3 1 0 0 0 0 0 0 0 0 0 0 0 0 0 0 0 0 0 0
0 0 0 0 0 0 0 0 0 0 0 0 0 0 0 0 0 0 0 0 0 1 3 3 3 2 1 0 0 0 0 0 0 0 0 0 0 0 0 0 0 0 0 0
0 0 0 0 0 0 0 0 0 0 0 0 0 0 0 0 0 0 0 0 1 3 4 4 3 3 2 1 0 0 0 0 0 0 0 0 0 0 0 0 0 0 0 0
0 0 0 0 0 0 0 0 0 0 0 0 0 0 0 0 0 0 0 1 2 4 5 5 4 3 2 1 0 0 0 0 0 0 0 0 0 0 0 0 0 0 0 0
0 0 0 0 0 0 0 0 0 0 0 0 0 0 0 0 0 0 0 1 2 4 5 5 3 1 1 0 0 0 0 0 0 0 0 0 0 0 0 0 0 0 0 0
0 0 0 0 0 0 0 0 0 0 0 0 0 0 0 0 0 0 0 1 3 3 3 3 1 0 0 0 0 0 0 0 0 0 0 0 0 0 0 0 0 0 0 0
0 0 0 0 0 0 0 0 0 0 0 0 0 0 0 0 0 0 0 1 2 2 1 1 0 0 0 0 0 0 0 0 0 0 0 0 0 0 0 0 0 0 0 0
0 0 0 0 0 0 0 0 0 0 0 0 0 0 0 0 0 0 0 1 1 1 0 0 0 0 0 0 0 0 0 0 0 0 0 0 0 0 0 0 0 0 0 0
0 0 0 0 0 0 0 0 0 0 0 0 0 0 0 0 0 0 0 0 0 0 0 0 0 0 0 0 0 0 0 0 0 0 0 0 0 0 0 0 0 0 0 0
0 0 0 0 0 0 0 0 0 0 0 0 0 0 0 0 0 0 0 0 0 0 0 1 1 0 0 0 0 0 0 0 0 0 0 0 0 0 0 0 0 0 0 0
0 0 0 0 0 0 0 0 0 0 0 0 0 0 0 0 0 0 0 0 0 0 1 2 2 1 0 0 0 0 0 0 0 0 0 0 0 0 0 0 0 0 0 0
0 0 0 0 0 0 0 0 0 0 0 0 0 0 0 0 0 0 0 0 0 0 1 2 2 1 0 0 0 0 0 0 0 0 0 0 0 0 0 0 0 0 0 0
Wind_Speed
1 3 1 4 5 5 3 3 2 2 2 3 5 5 5 5 6 7 6 6 6 6 6 6 8 8 7 7 7 6 6 5 5 3 3 3 2 2 2 2 4 4 4 5
3 2 6 4 3 2 3 3 1 1 0 2 3 3 4 5 7 9 10 8 8 6 5 6 7 7 8 7 6 6 6 5 5 3 3 3 2 1 1 2 3 4 4 4
5 5 4 4 4 3 3 5 4 3 2 3 3 0 3 4 4 6 7 8 8 10 10 8 8 8 8 8 7 7 6 5 5 5 4 3 3 3 3 3 2 3 4 4
4 5 3 3 3 3 2 3 5 5 4 1 2 2 5 5 5 7 9 9 10 10 9 9 9 8 9 8 7 7 6 6 5 6 5 5 3 2 1 1 1 2 3 4
3 2 1 1 2 3 3 4 4 4 4 2 1 2 6 4 7 10 11 12 11 11 12 11 10 10 9 8 8 7 7 5 5 6 6 6 4 2 1 1 2 2 3 3
4 2 1 2 0 3 4 6 5 4 3 1 5 4 6 8 13 11 12 13 13 12 12 10 9 8 7 7 7 7 7 5 5 5 5 6 6 4 4 3 2 1 2 2
3 2 1 1 3 2 5 6 3 2 1 5 4 4 9 11 12 15 15 15 14 12 12 11 10 9 9 9 9 8 8 6 5 5 5 5 6 6 5 4 3 2 1 1
1 3 3 3 4 4 3 7 6 4 4 4 2 6 9 8 10 11 12 12 13 12 12 13 13 12 11 11 10 9 9 7 6 6 5 4 4 3 3 3 3 3 2 1
4 4 3 3 3 7 4 3 5 4 1 2 4 6 7 2 4 8 10 11 13 14 14 14 13 12 12 11 10 10 10 7 6 6 5 4 4 4 4 4 3 3 2 2
5 3 2 2 2 1 5 6 4 3 2 2 5 4 4 3 4 7 10 13 13 13 13 13 13 12 12 11 9 9 9 8 7 6 5 5 4 4 5 5 4 4 3 3
5 3 2 0 4 6 3 2 4 3 3 3 3 6 5 4 4 8 11 13 14 15 15 13 12 11 11 9 9 8 8 7 6 6 5 5 4 4 5 5 4 4 4 4
5 5 2 5 4 5 5 6 6 4 3 3 2 8 5 3 3 6 8 10 13 15 14 14 12 11 10 10 9 9 8 8 7 6 6 6 5 5 5 4 4 4 4 4
6 6 2 3 3 0 2 4 5 5 3 3 3 8 5 2 2 3 6 9 10 12 12 11 11 11 11 11 10 9 9 8 7 7 6 6 5 5 5 4 4 4 5 4
8 5 6 7 6 4 3 4 4 6 4 4 6 7 7 5 3 3 5 9 11 13 13 13 12 12 11 11 11 10 8 8 8 7 7 7 6 6 5 5 5 5 5 5
7 5 5 6 5 4 5 7 7 7 8 8 8 7 9 7 6 6 6 8 11 13 14 15 14 12 11 10 10 9 9 8 8 8 8 7 6 5 5 5 5 5 5 5
5 5 4 3 5 6 6 9 10 9 8 8 7 9 8 7 5 5 7 9 12 14 16 16 15 14 14 13 12 11 10 9 9 9 8 7 6 6 6 6 5 5 5 5
5 6 4 3 3 1 7 11 11 8 7 8 10 10 5 4 6 7 8 11 13 15 16 16 16 16 15 14 13 13 11 10 10 9 8 8 7 7 6 7 6 6 5 5
8 6 4 2 0 6 9 6 8 8 9 9 8 7 8 9 8 8 8 11 12 14 14 15 14 14 13 12 11 11 10 10 10 9 9 8 8 7 7 7 6 5 4 5
7 7 4 3 3 6 8 5 6 5 7 8 10 9 7 6 2 3 6 10 13 14 14 13 14 13 13 13 12 12 11 10 10 10 10 9 9 9 8 7 6 5 5 4
4 5 5 4 3 6 8 6 4 4 4 7 8 9 7 5 3 7 7 8 10 10 10 11 10 10 12 13 13 13 12 12 12 12 11 9 9 10 9 8 6 4 5 5
4 3 4 4 4 8 8 4 3 4 7 5 6 7 7 8 9 7 5 6 8 9 9 10 11 12 12 13 14 14 13 14 12 10 9 9 9 9 8 6 5 5 5 5
7 5 5 5 4 8 5 3 6 7 4 3 3 6 7 7 5 4 4 5 6 7 8 10 11 11 10 13 15 14 14 12 10 10 10 9 9 8 7 7 5 5 6 6
6 8 7 8 8 6 3 5 5 3 3 3 3 3 5 5 4 4 4 5 5 7 8 9 10 10 9 12 14 15 11 10 11 11 10 9 8 6 7 8 7 5 5 5
3 2 3 1 4 4 3 2 2 2 3 2 3 4 5 4 4 4 4 4 5 5 7 7 9 10 9 10 10 10 10 12 12 11 10 9 9 7 6 6 6 6 6 5
4 2 2 2 3 2 3 2 2 0 1 2 2 3 4 5 4 4 4 4 5 5 5 7 9 10 10 9 9 9 12 13 12 11 10 9 8 8 7 6 5 6 6 7
3 4 5 5 5 4 3 3 0 2 1 2 3 3 3 4 4 4 4 3 4 5 5 6 6 7 8 9 9 9 11 13 12 10 9 7 7 6 6 5 3 3 4 7
Wind_Direction
32 72 211 222 200 193 183 175 199 226 227 160 167 169 187 185 183 177 177 176 170 170 165 149 149 142 133 132 129 131 128 129 121 110 103 95 79 48 40 45 50 50 50 53
36 259 236 227 230 203 190 175 188 303 111 129 156 185 204 204 198 187 183 183 177 169 161 156 151 148 145 148 143 138 137 136 135 134 134 133 127 103 67 30 37 42 51 54
195 241 244 227 230 208 205 179 178 166 76 63 115 270 238 230 210 197 194 187 181 176 171 169 160 158 152 154 156 151 150 138 136 131 109 88 67 49 35 28 23 17 45 55
224 246 257 242 228 182 212 181 148 141 118 152 137 216 253 220 221 206 201 194 190 182 174 174 167 162 161 162 159 150 147 138 135 130 127 129 127 133 180 172 52 20 37 53
257 240 244 220 220 146 163 137 125 128 122 114 174 189 264 208 220 218 206 200 195 185 179 179 176 170 163 158 156 149 142 138 136 132 134 129 128 144 134 98 81 46 27 39
252 254 206 190 154 126 118 79 57 61 84 201 209 195 253 210 211 207 204 199 194 188 182 179 176 164 153 153 149 146 142 143 140 135 135 135 140 138 125 119 111 66 25 25
315 310 268 125 79 45 93 93 60 10 346 247 217 204 243 222 208 200 198 195 192 185 179 171 170 165 158 157 155 151 146 147 149 141 142 146 148 147 147 151 144 128 87 48
207 275 233 187 165 167 158 139 156 184 215 269 231 230 253 239 211 196 189 185 184 182 179 176 175 171 166 163 159 156 154 154 156 152 154 150 148 144 146 150 148 149 149 145
185 248 266 202 169 149 145 165 167 137 217 254 266 274 296 337 184 180 176 176 183 183 180 178 174 172 167 166 167 163 159 158 163 161 152 144 146 144 140 136 134 140 142 129
168 211 266 229 121 142 154 152 113 130 170 258 285 271 263 270 198 186 182 182 186 182 179 176 175 174 171 169 168 161 159 163 165 162 159 149 146 146 140 128 129 136 137 124
157 160 282 151 185 188 157 157 136 143 170 175 271 272 234 222 210 200 195 189 183 180 178 176 177 174 168 162 162 160 159 158 161 161 152 143 146 142 134 129 135 137 129 123
157 132 207 246 243 186 173 182 156 159 222 188 220 271 273 233 228 208 201 190 183 178 176 174 172 166 163 165 165 164 163 164 167 161 150 151 150 141 134 135 139 135 127 125
147 122 108 336 330 252 194 203 177 153 151 185 208 267 292 300 284 204 189 184 176 171 170 168 167 169 171 170 169 168 168 169 164 156 152 151 151 149 147 145 139 132 128 122
129 128 164 195 212 198 213 228 192 158 175 213 229 257 289 287 283 252 190 180 173 171 171 170 174 176 176 174 172 170 171 167 161 157 155 158 163 160 153 143 135 131 128 125
129 158 198 225 229 202 211 221 218 205 197 200 228 237 252 245 232 224 193 176 171 173 176 179 179 178 176 174 174 171 171 168 163 158 162 169 165 152 142 138 134 128 125 128
130 158 185 251 242 230 241 233 225 223 215 218 232 249 244 240 232 217 196 179 179 183 185 185 183 179 180 180 178 174 174 172 163 163 168 164 156 150 147 143 135 127 123 121
155 150 157 250 279 275 254 232 223 223 215 201 220 235 231 227 214 208 198 189 187 189 189 187 186 186 185 184 178 177 176 168 164 166 165 162 157 155 155 147 137 136 135 126
154 147 145 189 110 234 244 225 206 218 231 216 221 228 216 216 215 214 200 193 194 191 189 189 187 186 184 179 173 167 163 165 167 167 167 165 158 156 152 146 147 146 137 134
159 149 143 156 204 268 279 244 195 197 243 226 222 234 230 221 205 256 219 201 199 196 190 188 186 183 178 175 169 160 164 167 170 174 174 170 163 158 157 158 159 152 141 138
128 132 141 156 185 238 253 246 196 142 256 247 212 215 217 161 177 243 226 203 201 195 186 180 174 169 173 175 165 164 170 173 182 182 176 169 165 164 166 167 160 152 147 148
127 122 153 172 212 256 256 252 127 161 236 246 201 200 188 187 207 226 209 193 192 184 179 170 165 172 178 169 164 171 176 187 186 171 163 163 166 166 163 158 152 146 143 139
168 166 181 166 201 250 257 151 181 215 234 225 193 188 182 193 207 202 190 183 174 170 170 166 168 176 171 166 168 176 187 184 161 157 161 165 165 165 158 150 149 147 144 144
188 188 182 184 210 236 227 205 225 199 198 219 189 186 169 166 183 178 172 167 162 161 165 166 167 166 166 171 173 180 182 159 155 158 162 161 158 157 153 155 155 150 151 155
264 172 141 207 259 253 256 249 264 222 204 208 164 142 139 145 153 152 154 151 151 155 158 154 154 159 168 174 176 174 159 156 157 162 162 159 157 156 155 157 161 162 169 171
230 164 144 215 252 328 327 291 254 314 79 92 104 117 131 133 135 142 145 150 152 147 148 152 159 166 170 167 166 158 154 155 158 161 162 162 162 163 164 168 177 178 191 187
214 176 167 210 219 181 243 281 326 95 100 115 114 101 106 127 136 132 134 143 141 137 135 144 153 157 160 158 159 158 158 158 158 160 163 164 162 163 164 161 163 199 190 195